Location: College Park
(38.9810°N, 76.9370°W)
Time: 23:19:21
(UTC-04:00)

Envisat - Visible Passes

Search period start: 20 May 2018 00:00
Search period end: 30 May 2018 00:00
Orbit: 764 x 766 km, 98.2° (Epoch: 20 May)

Date Brightness Start Highest point End Pass type
(mag) Time Alt. Az. Time Alt. Az. Time Alt. Az.
21 May 5.4 21:33:52 10° SW 21:37:37 21° W 21:41:24 10° NW visible
22 May 4.1 20:55:48 10° S 21:00:41 47° W 21:05:35 10° NNW visible
23 May 5.8 22:02:01 10° WSW 22:03:28 11° W 22:04:55 10° WNW visible
24 May 5.0 21:22:10 10° SSW 21:26:23 26° W 21:30:37 10° NW visible
25 May 3.6 20:44:29 10° S 20:49:29 60° W 20:54:31 10° NNW visible
26 May 5.6 21:49:25 10° SW 21:52:11 15° W 21:54:58 10° WNW visible
27 May 4.7 21:10:36 10° SSW 21:15:09 33° W 21:19:44 10° NNW visible
29 May 5.5 21:37:24 10° SW 21:40:55 19° W 21:44:28 10° NW visible
